Location: Altenst�hlen
(53.5567°N, 8.9425°E)
Time: 06:07:51
(UTC+00:00)

STARLINK-72 - Pass Details

Date: 23 October 2019
Orbit: 548 x 551 km, 53.0° (Epoch: 12 November)

Event Time Altitude Azimuth Distance (km) Brightness Sun altitude
Rises 18:49:56 0° 283° (WNW) 2,721 8.6 -24.2°
Reaches altitude 10° 18:52:13 10° 279° (W) 1,826 7.3 -24.5°
Enters shadow 18:55:46 48° 228° (SW) 723 4.3 -25.0°
